This is the latest recevied weather packets stored in our database for station/object DD6UBW. If no packets are shown the sender has not sent any weather packets the latest 10 day(s).
| Time | Temp. | Humidity | Pressure | Rain* | Wind** | Luminosity | Snow |
|---|---|---|---|---|---|---|---|
| 1788247801 | 17.22° C | 80% | 1015.6 hPa | 0.25 mm | - | - | - |
| 1788246001 | 16.67° C | 81% | 1014.6 hPa | 0.25 mm | - | - | - |
| 1788244201 | 16.67° C | 82% | 1014.6 hPa | 0.25 mm | - | - | - |
| 1788242401 | 16.67° C | 83% | 1014.6 hPa | 0.25 mm | - | - | - |
| 1788240601 | 16.11° C | 85% | 1013.6 hPa | 0.25 mm | - | - | - |
| 1788238801 | 15.56° C | 86% | 1013.6 hPa | 0.25 mm | - | - | - |
| 1788237001 | 15.56° C | 87% | 1013.6 hPa | 0.25 mm | - | - | - |
| 1788235201 | 15.56° C | 87% | 1013.6 hPa | 0.25 mm | - | - | - |
| 1788233402 | 15° C | 87% | 1012.6 hPa | 0.25 mm | - | - | - |
| 1788231601 | 15° C | 87% | 1012.6 hPa | 0.25 mm | - | - | - |
| 1788229801 | 15° C | 87% | 1012.6 hPa | 0.25 mm | - | - | - |
| 1788228001 | 15° C | 87% | 1012.6 hPa | 0.25 mm | - | - | - |
| 1788226201 | 15° C | 88% | 1012.6 hPa | 0.25 mm | - | - | - |
| 1788224401 | 14.44° C | 88% | 1012.6 hPa | 0.25 mm | - | - | - |
| 1788220801 | 14.44° C | 88% | 1012.6 hPa | 0 mm | - | - | - |
| 1788219000 | 14.44° C | 87% | 1012.6 hPa | 0 mm | - | - | - |
| 1788217201 | 15° C | 87% | 1012.6 hPa | 0 mm | - | - | - |
| 1788215400 | 15° C | 87% | 1012.6 hPa | 0 mm | - | - | - |
| 1788213602 | 15.56° C | 87% | 1012.6 hPa | 4.06 mm | - | - | - |
| 1788211801 | 15.56° C | 86% | 1011.6 hPa | 4.06 mm | - | - | - |
| 1788210001 | 15.56° C | 85% | 1011.6 hPa | 4.06 mm | - | - | - |
| 1788208200 | 16.11° C | 82% | 1011.6 hPa | 4.06 mm | - | - | - |
| 1788206401 | 17.22° C | 76% | 1011.6 hPa | 3.3 mm | - | - | - |
| 1788204601 | 17.22° C | 76% | 1010.6 hPa | 3.05 mm | - | - | - |
| 1788202801 | 17.22° C | 77% | 1010.6 hPa | 3.05 mm | - | - | - |
* Rain since midnight (hover to see other rain measurements)
** Current wind speed in m/s (hover to see current wind gust speed)